TimeAKST,TemperatureF,Dew PointF,Humidity,Sea Level PressureIn,VisibilityMPH,Wind Direction,Wind SpeedMPH,Gust SpeedMPH,PrecipitationIn,Events,Conditions,WindDirDegrees,DateUTC
12:54 AM,35.1,28.0,76,30.08,10.0,ESE,12.7,20.7,N/A,,Overcast,120,2013-02-17 09:54:00
1:54 AM,35.1,28.0,76,30.08,10.0,ESE,9.2,-,N/A,,Mostly Cloudy,120,2013-02-17 10:54:00
2:54 AM,35.1,28.0,76,30.06,10.0,ESE,8.1,18.4,N/A,,Partly Cloudy,110,2013-02-17 11:54:00
3:54 AM,35.1,28.9,78,30.05,10.0,ESE,10.4,-,N/A,,Mostly Cloudy,110,2013-02-17 12:54:00
4:54 AM,35.1,28.0,76,30.01,10.0,East,8.1,16.1,N/A,,Overcast,100,2013-02-17 13:54:00
5:54 AM,35.1,27.0,72,30.00,10.0,ESE,11.5,23.0,N/A,,Overcast,110,2013-02-17 14:54:00
6:54 AM,34.0,27.0,75,29.97,10.0,ESE,12.7,21.9,N/A,,Overcast,110,2013-02-17 15:54:00
7:54 AM,34.0,27.0,75,29.95,10.0,ENE,15.0,27.6,N/A,,Overcast,70,2013-02-17 16:54:00
8:29 AM,33.8,28.4,81,29.92,9.0,ENE,11.5,23.0,0.00,,Overcast,70,2013-02-17 17:29:00
8:54 AM,34.0,28.0,79,29.93,5.0,ENE,16.1,26.5,0.00,Snow,Light Snow,70,2013-02-17 17:54:00
9:34 AM,33.8,30.2,87,29.91,8.0,East,12.7,21.9,0.00,Snow,Light Snow,80,2013-02-17 18:34:00
9:54 AM,34.0,30.0,85,29.92,10.0,East,9.2,19.6,0.00,,Overcast,90,2013-02-17 18:54:00
10:54 AM,34.0,30.9,89,29.91,10.0,East,10.4,23.0,0.00,,Overcast,100,2013-02-17 19:54:00
11:54 AM,35.1,30.9,85,29.88,9.0,East,12.7,24.2,0.00,Snow,Light Snow,90,2013-02-17 20:54:00
12:14 PM,33.8,30.2,87,29.86,4.0,East,11.5,18.4,0.00,Snow,Light Snow,80,2013-02-17 21:14:00
12:54 PM,34.0,30.9,89,29.86,5.0,East,11.5,19.6,0.00,Snow,Light Snow,90,2013-02-17 21:54:00
1:14 PM,33.8,30.2,87,29.84,2.5,East,12.7,19.6,0.00,Snow,Light Snow,80,2013-02-17 22:14:00
1:29 PM,33.8,30.2,87,29.84,4.0,East,11.5,21.9,0.00,Snow,Light Snow,80,2013-02-17 22:29:00
1:54 PM,34.0,30.9,89,29.84,3.0,ENE,13.8,20.7,0.00,Snow,Light Snow,70,2013-02-17 22:54:00
2:08 PM,33.8,30.2,87,29.82,2.0,ENE,11.5,19.6,0.00,Snow,Light Snow,70,2013-02-17 23:08:00
2:54 PM,34.0,30.9,89,29.82,2.0,ENE,11.5,18.4,0.00,Snow,Light Snow,70,2013-02-17 23:54:00
3:02 PM,33.8,30.2,87,29.81,1.8,ENE,11.5,18.4,0.00,Snow,Light Snow,60,2013-02-18 00:02:00
3:10 PM,33.8,30.2,87,29.80,1.5,ENE,13.8,20.7,0.00,Snow,Light Snow,70,2013-02-18 00:10:00
3:54 PM,34.0,30.9,89,29.80,1.2,ENE,12.7,21.9,0.01,Snow,Light Snow,60,2013-02-18 00:54:00
4:54 PM,34.0,30.9,89,29.78,1.8,ENE,10.4,19.6,0.01,Snow,Light Snow,70,2013-02-18 01:54:00
4:56 PM,33.8,30.2,87,29.77,2.0,ENE,12.7,19.6,0.00,Snow,Light Snow,70,2013-02-18 01:56:00
5:14 PM,33.8,30.2,87,29.76,3.0,ENE,9.2,18.4,0.00,Snow,Light Snow,60,2013-02-18 02:14:00
5:36 PM,33.8,30.2,87,29.75,2.5,ENE,11.5,-,0.01,Snow,Light Snow,60,2013-02-18 02:36:00
5:54 PM,34.0,30.9,89,29.75,2.0,ENE,10.4,-,0.01,Snow,Light Snow,60,2013-02-18 02:54:00
6:05 PM,33.8,30.2,87,29.74,4.0,ENE,11.5,18.4,0.00,Snow,Light Snow,70,2013-02-18 03:05:00
6:26 PM,33.8,30.2,87,29.74,1.8,ENE,11.5,20.7,0.00,Snow,Light Snow,60,2013-02-18 03:26:00
6:54 PM,33.1,30.9,92,29.74,1.2,East,9.2,-,0.01,Snow,Light Snow,100,2013-02-18 03:54:00
7:18 PM,33.8,32.0,93,29.73,1.0,East,6.9,-,0.02,Snow,Light Snow,100,2013-02-18 04:18:00
7:54 PM,32.0,32.0,100,29.73,1.0,ESE,5.8,-,0.05,Snow,Light Snow,110,2013-02-18 04:54:00
8:46 PM,32.0,32.0,100,29.70,0.8,ESE,5.8,-,0.05,Snow,Light Snow,110,2013-02-18 05:46:00
8:54 PM,32.0,32.0,100,29.70,0.8,ESE,6.9,-,0.06,Snow,Light Snow,120,2013-02-18 05:54:00
8:58 PM,32.0,32.0,100,29.69,1.0,ESE,9.2,-,0.00,Snow,Light Snow,120,2013-02-18 05:58:00
9:24 PM,32.0,32.0,100,29.68,2.0,SE,11.5,18.4,0.01,Snow,Light Snow,130,2013-02-18 06:24:00
9:44 PM,33.8,32.0,93,29.67,2.5,SSE,12.7,-,0.01,Snow,Light Snow,150,2013-02-18 06:44:00
9:54 PM,33.1,32.0,96,29.68,2.5,Calm,Calm,-,0.01,Snow,Light Snow,0,2013-02-18 06:54:00
10:45 PM,33.8,30.2,87,29.66,3.0,West,4.6,-,0.01,Snow,Light Snow,280,2013-02-18 07:45:00
10:54 PM,33.1,30.9,92,29.67,2.5,NW,5.8,-,0.01,Snow,Light Snow,310,2013-02-18 07:54:00
11:11 PM,33.8,32.0,93,29.65,2.0,NW,4.6,-,0.00,Snow,Light Snow,310,2013-02-18 08:11:00
11:33 PM,33.8,30.2,87,29.66,1.8,Calm,Calm,-,0.01,Snow,Light Snow,0,2013-02-18 08:33:00
11:38 PM,33.8,30.2,87,29.66,2.0,NW,4.6,-,0.01,Snow,Light Snow,310,2013-02-18 08:38:00
11:54 PM,33.1,32.0,96,29.67,2.0,Calm,Calm,-,0.01,Snow,Light Snow,0,2013-02-18 08:54:00